Time,TemperatureF,DewpointF,PressureIn,WindDirection,WindDirectionDegrees,WindSpeedMPH,WindSpeedGustMPH,Humidity,HourlyPrecipIn,Conditions,Clouds,dailyrainin,SoftwareType,DateUTC
2013-03-17 00:05:00,37.7,35.0,29.80,SE,136,0.0,5.0,89,0.01,,,0.00,weatherlink.com 1.10,2013-03-17 06:05:00,
2013-03-17 00:20:00,37.7,35.0,29.78,SE,136,0.0,3.0,90,0.00,,,0.00,weatherlink.com 1.10,2013-03-17 06:20:00,
2013-03-17 00:35:00,37.6,35.0,29.77,SE,136,0.0,4.0,90,0.00,,,0.00,weatherlink.com 1.10,2013-03-17 06:35:00,
2013-03-17 00:50:00,37.6,35.0,29.79,SE,136,2.0,4.0,90,0.00,,,0.00,weatherlink.com 1.10,2013-03-17 06:50:00,
2013-03-17 01:05:00,38.0,35.0,29.77,SSE,163,4.0,7.0,87,0.00,,,0.00,weatherlink.com 1.10,2013-03-17 07:05:00,
2013-03-17 01:20:00,37.8,34.0,29.77,SSE,163,1.0,2.0,87,0.00,,,0.00,weatherlink.com 1.10,2013-03-17 07:20:00,
2013-03-17 01:35:00,37.2,34.0,29.78,SSE,163,1.0,4.0,87,0.00,,,0.00,weatherlink.com 1.10,2013-03-17 07:35:00,
2013-03-17 01:50:00,36.9,34.0,29.79,SSE,155,1.0,5.0,89,0.00,,,0.00,weatherlink.com 1.10,2013-03-17 07:50:00,
2013-03-17 02:05:00,36.4,34.0,29.79,SSE,155,0.0,3.0,89,0.00,,,0.00,weatherlink.com 1.10,2013-03-17 08:05:00,
2013-03-17 02:20:00,35.7,33.0,29.79,SSE,155,0.0,1.0,89,0.00,,,0.00,weatherlink.com 1.10,2013-03-17 08:20:00,
2013-03-17 02:35:00,35.2,33.0,29.79,SSE,155,2.0,2.0,90,0.00,,,0.00,weatherlink.com 1.10,2013-03-17 08:35:00,
2013-03-17 02:50:00,34.8,32.0,29.78,SSE,155,0.0,2.0,90,0.00,,,0.00,weatherlink.com 1.10,2013-03-17 08:50:00,
2013-03-17 03:05:00,34.2,32.0,29.78,SSE,155,0.0,1.0,90,0.00,,,0.00,weatherlink.com 1.10,2013-03-17 09:05:00,
2013-03-17 03:20:00,33.7,31.0,29.77,SSE,155,0.0,2.0,90,0.00,,,0.00,weatherlink.com 1.10,2013-03-17 09:20:00,
2013-03-17 03:36:00,33.4,31.0,29.77,SSE,155,0.0,3.0,91,0.00,,,0.00,weatherlink.com 1.10,2013-03-17 09:36:00,
2013-03-17 03:51:00,33.2,31.0,29.77,SSE,155,1.0,2.0,91,0.00,,,0.00,weatherlink.com 1.10,2013-03-17 09:51:00,
2013-03-17 04:06:00,32.7,30.0,29.78,SSE,155,2.0,3.0,91,0.00,,,0.00,weatherlink.com 1.10,2013-03-17 10:06:00,
2013-03-17 04:21:00,32.6,30.0,29.77,SSE,155,1.0,3.0,91,0.00,,,0.00,weatherlink.com 1.10,2013-03-17 10:21:00,
2013-03-17 04:36:00,32.4,30.0,29.77,SSE,155,0.0,3.0,91,0.00,,,0.00,weatherlink.com 1.10,2013-03-17 10:36:00,
2013-03-17 05:06:00,32.2,30.0,29.77,SSE,155,0.0,2.0,91,0.00,,,0.00,weatherlink.com 1.10,2013-03-17 11:06:00,
2013-03-17 05:21:00,32.6,31.0,29.78,SSE,155,0.0,2.0,92,0.00,,,0.00,weatherlink.com 1.10,2013-03-17 11:21:00,
2013-03-17 06:06:00,32.6,30.0,29.78,SSE,155,1.0,4.0,91,0.00,,,0.00,weatherlink.com 1.10,2013-03-17 12:06:00,
2013-03-17 06:21:00,32.4,30.0,29.78,SSE,155,0.0,2.0,91,0.00,,,0.00,weatherlink.com 1.10,2013-03-17 12:21:00,
2013-03-17 06:36:00,32.3,30.0,29.78,SSE,155,0.0,0.0,91,0.00,,,0.00,weatherlink.com 1.10,2013-03-17 12:36:00,
2013-03-17 06:51:00,32.5,30.0,29.78,SSE,155,0.0,1.0,91,0.00,,,0.00,weatherlink.com 1.10,2013-03-17 12:51:00,
2013-03-17 07:36:00,32.7,31.0,29.77,SSE,155,0.0,1.0,92,0.00,,,0.00,weatherlink.com 1.10,2013-03-17 13:36:00,
2013-03-17 08:51:00,37.6,35.0,29.75,SSE,155,2.0,3.0,89,0.01,,,0.01,weatherlink.com 1.10,2013-03-17 14:51:00,
2013-03-17 09:51:00,38.3,34.0,29.78,WSW,246,0.0,6.0,85,0.00,,,0.01,weatherlink.com 1.10,2013-03-17 15:51:00,
2013-03-17 10:06:00,38.7,36.0,29.77,WSW,247,0.0,2.0,89,0.00,,,0.01,weatherlink.com 1.10,2013-03-17 16:06:00,
2013-03-17 10:21:00,39.7,35.0,29.77,WSW,247,0.0,3.0,82,0.00,,,0.01,weatherlink.com 1.10,2013-03-17 16:21:00,
2013-03-17 10:51:00,42.2,36.0,29.77,WSW,247,0.0,4.0,78,0.00,,,0.01,weatherlink.com 1.10,2013-03-17 16:51:00,
2013-03-17 11:06:00,44.0,37.0,29.76,WSW,246,0.0,3.0,75,0.00,,,0.01,weatherlink.com 1.10,2013-03-17 17:06:00,
2013-03-17 11:21:00,46.6,34.0,29.75,West,275,5.0,15.0,63,0.00,,,0.01,weatherlink.com 1.10,2013-03-17 17:21:00,
2013-03-17 11:36:00,45.9,31.0,29.74,WNW,284,18.0,24.0,57,0.00,,,0.01,weatherlink.com 1.10,2013-03-17 17:36:00,
2013-03-17 11:51:00,43.2,33.0,29.77,West,267,13.0,20.0,67,0.00,,,0.01,weatherlink.com 1.10,2013-03-17 17:51:00,
2013-03-17 12:06:00,42.0,34.0,29.77,WSW,257,7.0,21.0,74,0.00,,,0.01,weatherlink.com 1.10,2013-03-17 18:06:00,
2013-03-17 12:22:00,45.5,35.0,29.73,West,265,13.0,22.0,67,0.00,,,0.01,weatherlink.com 1.10,2013-03-17 18:22:00,
2013-03-17 12:36:00,46.0,32.0,29.73,West,261,10.0,19.0,59,0.00,,,0.01,weatherlink.com 1.10,2013-03-17 18:36:00,
2013-03-17 12:51:00,45.1,33.0,29.72,WSW,255,4.0,19.0,63,0.00,,,0.01,weatherlink.com 1.10,2013-03-17 18:51:00,
2013-03-17 13:06:00,45.4,32.0,29.72,West,261,8.0,18.0,60,0.00,,,0.01,weatherlink.com 1.10,2013-03-17 19:06:00,
2013-03-17 13:21:00,46.2,32.0,29.73,West,261,9.0,15.0,59,0.00,,,0.01,weatherlink.com 1.10,2013-03-17 19:21:00,
2013-03-17 13:36:00,47.4,32.0,29.71,WSW,250,10.0,20.0,55,0.00,,,0.01,weatherlink.com 1.10,2013-03-17 19:36:00,
2013-03-17 13:52:00,49.0,32.0,29.70,WSW,255,15.0,20.0,52,0.00,,,0.01,weatherlink.com 1.10,2013-03-17 19:52:00,
2013-03-17 14:07:00,49.2,32.0,29.69,WSW,240,9.0,20.0,51,0.00,,,0.01,weatherlink.com 1.10,2013-03-17 20:07:00,
2013-03-17 14:22:00,51.6,31.0,29.69,West,271,7.0,18.0,45,0.00,,,0.01,weatherlink.com 1.10,2013-03-17 20:22:00,
2013-03-17 14:37:00,49.2,30.0,29.68,West,259,11.0,14.0,47,0.00,,,0.01,weatherlink.com 1.10,2013-03-17 20:37:00,
2013-03-17 14:52:00,51.5,27.0,29.67,West,275,7.0,17.0,39,0.00,,,0.01,weatherlink.com 1.10,2013-03-17 20:52:00,
2013-03-17 15:07:00,52.6,25.0,29.67,WNW,296,3.0,18.0,35,0.00,,,0.01,weatherlink.com 1.10,2013-03-17 21:07:00,
2013-03-17 15:22:00,53.7,22.0,29.66,West,263,23.0,23.0,29,0.00,,,0.01,weatherlink.com 1.10,2013-03-17 21:22:00,
2013-03-17 15:37:00,54.8,21.0,29.65,NW,315,7.0,23.0,27,0.00,,,0.01,weatherlink.com 1.10,2013-03-17 21:37:00,
2013-03-17 15:52:00,56.1,21.0,29.66,West,261,17.0,21.0,26,0.00,,,0.01,weatherlink.com 1.10,2013-03-17 21:52:00,
2013-03-17 16:22:00,55.9,18.0,29.66,WSW,244,14.0,24.0,23,0.00,,,0.01,weatherlink.com 1.10,2013-03-17 22:22:00,
2013-03-17 16:37:00,55.9,18.0,29.65,West,280,7.0,19.0,23,0.00,,,0.01,weatherlink.com 1.10,2013-03-17 22:37:00,
2013-03-17 16:53:00,55.9,18.0,29.65,NW,304,6.0,23.0,23,0.00,,,0.01,weatherlink.com 1.10,2013-03-17 22:53:00,
2013-03-17 17:08:00,56.1,18.0,29.65,West,267,11.0,26.0,22,0.00,,,0.01,weatherlink.com 1.10,2013-03-17 23:08:00,
2013-03-17 17:23:00,55.3,15.0,29.66,West,263,12.0,22.0,20,0.00,,,0.01,weatherlink.com 1.10,2013-03-17 23:23:00,
2013-03-17 17:38:00,53.9,15.0,29.65,West,281,12.0,24.0,21,0.00,,,0.01,weatherlink.com 1.10,2013-03-17 23:38:00,
2013-03-17 17:53:00,54.0,15.0,29.65,West,267,9.0,26.0,21,0.00,,,0.01,weatherlink.com 1.10,2013-03-17 23:53:00,
2013-03-17 18:23:00,52.4,15.0,29.66,WNW,303,10.0,27.0,23,0.00,,,0.01,weatherlink.com 1.10,2013-03-18 00:23:00,
2013-03-17 18:38:00,51.6,17.0,29.66,NW,311,9.0,19.0,25,0.00,,,0.01,weatherlink.com 1.10,2013-03-18 00:38:00,
2013-03-17 18:53:00,51.2,15.0,29.67,West,267,8.0,19.0,24,0.00,,,0.01,weatherlink.com 1.10,2013-03-18 00:53:00,
2013-03-17 19:08:00,50.1,10.0,29.67,West,279,8.0,18.0,20,0.00,,,0.01,weatherlink.com 1.10,2013-03-18 01:08:00,
2013-03-17 19:23:00,49.3,10.0,29.68,West,270,4.0,19.0,20,0.00,,,0.01,weatherlink.com 1.10,2013-03-18 01:23:00,
2013-03-17 19:38:00,48.3,10.0,29.70,West,269,4.0,11.0,21,0.00,,,0.01,weatherlink.com 1.10,2013-03-18 01:38:00,
2013-03-17 19:53:00,48.0,11.0,29.71,West,271,6.0,14.0,22,0.00,,,0.01,weatherlink.com 1.10,2013-03-18 01:53:00,
2013-03-17 20:08:00,47.1,12.0,29.72,West,275,2.0,11.0,24,0.00,,,0.01,weatherlink.com 1.10,2013-03-18 02:08:00,
2013-03-17 20:23:00,45.9,13.0,29.73,West,276,2.0,4.0,26,0.00,,,0.01,weatherlink.com 1.10,2013-03-18 02:23:00,
2013-03-17 20:38:00,44.4,15.0,29.74,West,276,0.0,2.0,30,0.00,,,0.01,weatherlink.com 1.10,2013-03-18 02:38:00,
2013-03-17 20:53:00,41.2,15.0,29.76,West,276,0.0,2.0,34,0.00,,,0.01,weatherlink.com 1.10,2013-03-18 02:53:00,
2013-03-17 21:08:00,38.8,18.0,29.77,West,276,0.0,2.0,44,0.00,,,0.01,weatherlink.com 1.10,2013-03-18 03:08:00,
2013-03-17 21:23:00,38.3,19.0,29.78,West,276,0.0,4.0,46,0.00,,,0.01,weatherlink.com 1.10,2013-03-18 03:23:00,
2013-03-17 21:38:00,39.3,20.0,29.78,West,277,0.0,5.0,46,0.00,,,0.01,weatherlink.com 1.10,2013-03-18 03:38:00,
2013-03-17 21:53:00,38.7,20.0,29.78,West,277,1.0,3.0,47,0.00,,,0.01,weatherlink.com 1.10,2013-03-18 03:53:00,
2013-03-17 22:08:00,36.8,20.0,29.80,West,277,0.0,4.0,52,0.00,,,0.01,weatherlink.com 1.10,2013-03-18 04:08:00,
2013-03-17 22:23:00,35.8,20.0,29.80,West,277,1.0,4.0,54,0.00,,,0.01,weatherlink.com 1.10,2013-03-18 04:23:00,
2013-03-17 22:38:00,35.1,21.0,29.80,West,277,0.0,3.0,56,0.00,,,0.01,weatherlink.com 1.10,2013-03-18 04:38:00,
2013-03-17 22:53:00,35.0,21.0,29.81,West,277,0.0,3.0,56,0.00,,,0.01,weatherlink.com 1.10,2013-03-18 04:53:00,
2013-03-17 23:08:00,35.3,20.0,29.81,West,277,0.0,2.0,54,0.00,,,0.01,weatherlink.com 1.10,2013-03-18 05:08:00,
2013-03-17 23:23:00,34.4,20.0,29.84,West,277,1.0,3.0,56,0.00,,,0.01,weatherlink.com 1.10,2013-03-18 05:23:00,
2013-03-17 23:38:00,34.7,20.0,29.84,West,277,0.0,4.0,55,0.00,,,0.01,weatherlink.com 1.10,2013-03-18 05:38:00,
2013-03-17 23:53:00,35.8,21.0,29.85,West,271,1.0,5.0,55,0.00,,,0.01,weatherlink.com 1.10,2013-03-18 05:53:00,